Anchorage, AK

6:53 AM AKDT on March 25, 2017 (GMT -0800)
Ted Stevens Anchorage Int'l Airport

Weather History for PANC - November, 2011

Change the Weather History Date:

Wednesday, November 30, 2011

  Actual Average Record
Temperature  
Mean Temperature 20 °F 20 °F  
Max Temperature 25 °F 25 °F 47 °F (2002)
Min Temperature 15 °F 14 °F -15 °F (1990)
Degree Days  
Heating Degree Days 45    
Month to date heating degree days 1522  
Since 1 July heating degree days 3383  
Cooling Degree Days 0    
Month to date cooling degree days 0  
Year to date cooling degree days 0  
Moisture  
Dew Point 20 °F    
Average Humidity 85    
Maximum Humidity 92    
Minimum Humidity 77    
Precipitation  
Precipitation 0.03 in 0.04 in 0.52 in (1976)
Month to date precipitation 2.32 1.16  
Year to date precipitation 14.50 15.47  
Snow  
Snow 0.50 in 0.60 in 9.20 in (1996)
Month to date snowfall 32.4 13.1  
Since 1 June snowfall 35.8  
Since 1 July snowfall 35.8 21.4  
Since 1 September snowfall 21.4  
Snow Depth 14.00 in    
Sea Level Pressure  
Sea Level Pressure 29.59 in    
Wind  
Wind Speed 3 mph (NNE)    
Max Wind Speed 6 mph    
Max Gust Speed -    
Visibility 7 miles    
Events Snow    
T = Trace of Precipitation, MM = Missing Value Source: NWS Daily Summary

Daily Weather History Graph

Daily Weather History Graph

Search for Another Location

Airport or City:

Trip Planner

Search our weather history database for the weather conditions in past years. The results will help you decide how hot, cold, wet, or windy it might be!

Date:

Astronomy

Nov. 30, 2011 Rise Set
Actual Time 9:43 AM AKST 3:53 PM AKST
Civil Twilight 8:45 AM AKST 4:51 PM AKST
Nautical Twilight 7:48 AM AKST 5:48 PM AKST
Astronomical Twilight 6:55 AM AKST 6:40 PM AKST
Moon 1:05 PM AKST (11/30) 11:09 PM AKST (11/30)
Length of Visible Light 8h 05m
Length of Day
6h 10m
Waxing Crescent, 35% of the Moon is Illuminated
Nov 30
Waxing Crescent
Dec 2
First Quarter
Dec 10
Full
Dec 17
Last Quarter
Dec 24
New

Hourly Weather History & Observations

Time (AKST) Temp. Windchill Dew Point Humidity Pressure Visibility Wind Dir Wind Speed Gust Speed Precip Events Conditions
12:53 AM 21.0 °F - 17.1 °F 85% 29.72 in 9.0 mi Calm Calm - 0.00 in Snow Light Snow
1:53 AM 21.9 °F 14.5 °F 18.0 °F 85% 29.74 in 9.0 mi NNW 5.8 mph - 0.00 in Snow Light Snow
3:53 AM 21.9 °F 17.2 °F 19.0 °F 89% 29.73 in 10.0 mi NNE 3.5 mph - 0.00 in   Overcast
4:53 AM 21.9 °F 17.2 °F 18.0 °F 85% 29.73 in 10.0 mi NNW 3.5 mph - N/A   Scattered Clouds
5:53 AM 21.0 °F 16.2 °F 18.0 °F 88% 29.73 in 10.0 mi North 3.5 mph - N/A   Partly Cloudy
6:53 AM 21.0 °F 16.2 °F 18.0 °F 88% 29.72 in 10.0 mi North 3.5 mph - N/A   Scattered Clouds
7:53 AM 21.0 °F 16.2 °F 18.0 °F 88% 29.71 in 10.0 mi NNW 3.5 mph - N/A   Scattered Clouds
8:53 AM 19.0 °F 13.9 °F 17.1 °F 92% 29.71 in 10.0 mi North 3.5 mph - N/A   Scattered Clouds
9:53 AM 19.9 °F 14.9 °F 17.1 °F 89% 29.71 in 10.0 mi North 3.5 mph - N/A   Scattered Clouds
10:53 AM 19.9 °F 14.9 °F 17.1 °F 89% 29.70 in 10.0 mi North 3.5 mph - N/A   Scattered Clouds
11:53 AM 21.0 °F 14.6 °F 18.0 °F 88% 29.69 in 10.0 mi Variable 4.6 mph - N/A   Mostly Cloudy
12:53 PM 19.9 °F 13.4 °F 17.1 °F 89% 29.68 in 10.0 mi NE 4.6 mph - N/A   Mostly Cloudy
1:53 PM 21.9 °F - 19.9 °F 92% 29.65 in 10.0 mi Calm Calm - N/A   Mostly Cloudy
2:53 PM 23.0 °F - 19.9 °F 88% 29.62 in 10.0 mi Calm Calm - N/A   Mostly Cloudy
3:53 PM 23.0 °F - 19.9 °F 88% 29.59 in 10.0 mi Calm Calm - N/A   Mostly Cloudy
4:53 PM 23.0 °F 18.4 °F 19.9 °F 88% 29.57 in 10.0 mi NW 3.5 mph - N/A   Mostly Cloudy
5:53 PM 23.0 °F - 19.9 °F 88% 29.55 in 10.0 mi Calm Calm - N/A   Mostly Cloudy
6:53 PM 25.0 °F - 21.0 °F 85% 29.54 in 10.0 mi Calm Calm - 0.00 in Snow Light Snow
6:59 PM 24.8 °F - 21.2 °F 86% 29.52 in 2.0 mi Calm Calm - 0.00 in Snow Light Snow
7:09 PM 24.8 °F 20.5 °F 21.2 °F 86% 29.51 in 3.0 mi North 3.5 mph - 0.00 in Snow Light Snow
7:53 PM 25.0 °F - 21.9 °F 88% 29.51 in 10.0 mi Calm Calm - 0.00 in Snow Light Snow
8:53 PM 26.1 °F - 23.0 °F 88% 29.50 in 7.0 mi Calm Calm - 0.00 in Snow Light Snow
9:32 PM 26.6 °F - 23.0 °F 86% 29.48 in 1.5 mi Calm Calm - 0.01 in Snow Light Snow
9:47 PM 26.6 °F - 23.0 °F 86% 29.47 in 2.0 mi Calm Calm - 0.02 in Snow Light Snow
9:53 PM 25.0 °F 20.7 °F 21.9 °F 88% 29.48 in 2.0 mi SSE 3.5 mph - 0.02 in Snow Light Snow
10:00 PM 24.8 °F - 23.0 °F 93% 29.48 in 7.0 mi Calm Calm - 0.00 in Snow Light Snow
10:06 PM 24.8 °F - 21.2 °F 86% 29.48 in 7.0 mi Calm Calm - 0.00 in   Mostly Cloudy
10:16 PM 24.8 °F - 21.2 °F 86% 29.48 in 2.0 mi Calm Calm - 0.00 in Snow Light Snow
10:41 PM 24.8 °F 20.5 °F 21.2 °F 86% 29.48 in 1.2 mi East 3.5 mph - 0.02 in Snow Light Snow
10:45 PM 26.6 °F 18.2 °F 23.0 °F 86% 29.48 in 0.5 mi NE 8.1 mph - 0.02 in Snow Snow
10:53 PM 25.0 °F 20.7 °F 23.0 °F 92% 29.49 in 2.0 mi ESE 3.5 mph - 0.02 in Snow Light Snow
11:00 PM 24.8 °F 17.9 °F 21.2 °F 86% 29.48 in 10.0 mi ESE 5.8 mph - 0.00 in   Mostly Cloudy
11:53 PM 26.1 °F - 24.1 °F 92% 29.49 in 10.0 mi Calm Calm - 0.00 in   Mostly Cloudy